St. Paul Lake Elmo, MN

3:48 PM CDT on March 27, 2017 (GMT -0500)
St. Paul Lake Elmo

Weather History for K21D - April, 2014

Change the Weather History Date:

Sunday, April 13, 2014

  Actual Average (KSTP) Record (KSTP)
Temperature  
Mean Temperature 38 °F -  
Max Temperature 44 °F 56 °F 82 °F (2006)
Min Temperature 33 °F 36 °F 28 °F (2004)
Degree Days  
Heating Degree Days 26    
Moisture  
Dew Point 34 °F    
Average Humidity 81    
Maximum Humidity 93    
Minimum Humidity 70    
Precipitation  
Precipitation 0.00 in - - ()
Sea Level Pressure  
Sea Level Pressure 29.84 in    
Wind  
Wind Speed 9 mph (North)    
Max Wind Speed 20 mph    
Max Gust Speed 31 mph    
Visibility 10 miles    
Events      
Averages and records for this station are not official NWS values.
T = Trace of Precipitation, MM = Missing Value Source: NWS Daily Summary

Daily Weather History Graph

Daily Weather History Graph

Search for Another Location

Airport or City:

Trip Planner

Search our weather history database for the weather conditions in past years. The results will help you decide how hot, cold, wet, or windy it might be!

Date:

Astronomy

Apr. 13, 2014 Rise Set
Actual Time 6:30 AM CDT 7:54 PM CDT
Civil Twilight 5:59 AM CDT 8:25 PM CDT
Nautical Twilight 5:22 AM CDT 9:01 PM CDT
Astronomical Twilight 4:43 AM CDT 9:41 PM CDT
Moon 6:29 PM CDT (4/13) 5:33 AM CDT (4/13)
Length of Visible Light 14h 25m
Length of Day
13h 24m
Waxing Gibbous, 97% of the Moon is Illuminated
Apr 13
Waxing Gibbous
Apr 15
Full
Apr 22
Last Quarter
Apr 29
New
May 6
First Quarter

Hourly Weather History & Observations

Time (CDT) Temp. Windchill Dew Point Humidity Pressure Visibility Wind Dir Wind Speed Gust Speed Precip Events Conditions
12:11 AM 44.6 °F 41.4 °F 41.0 °F 87% 29.76 in 10.0 mi NNE 5.8 mph - N/A   Overcast
12:31 AM 44.6 °F 41.4 °F 41.0 °F 87% 29.76 in 10.0 mi NNE 5.8 mph - N/A   Overcast
12:51 AM 42.8 °F 38.6 °F 41.0 °F 93% 29.75 in 10.0 mi NE 6.9 mph - N/A   Overcast
1:11 AM 42.8 °F 40.1 °F 41.0 °F 93% 29.76 in 10.0 mi North 4.6 mph - N/A   Overcast
1:31 AM 42.8 °F 39.3 °F 41.0 °F 93% 29.76 in 10.0 mi NNE 5.8 mph - N/A   Overcast
1:51 AM 42.8 °F 39.3 °F 41.0 °F 93% 29.77 in 10.0 mi North 5.8 mph - N/A   Overcast
2:11 AM 42.8 °F 40.1 °F 41.0 °F 93% 29.78 in 10.0 mi North 4.6 mph - N/A   Overcast
2:31 AM 42.8 °F 38.6 °F 41.0 °F 93% 29.78 in 10.0 mi North 6.9 mph - N/A   Overcast
2:51 AM 42.8 °F 39.3 °F 41.0 °F 93% 29.79 in 10.0 mi North 5.8 mph - N/A   Overcast
3:11 AM 42.8 °F 38.6 °F 41.0 °F 93% 29.79 in 10.0 mi North 6.9 mph - N/A   Overcast
3:31 AM 42.8 °F 38.0 °F 39.2 °F 87% 29.79 in 10.0 mi North 8.1 mph - N/A   Overcast
3:51 AM 41.0 °F 36.4 °F 37.4 °F 87% 29.80 in 10.0 mi North 6.9 mph - N/A   Overcast
4:11 AM 41.0 °F 36.4 °F 37.4 °F 87% 29.82 in 10.0 mi NNW 6.9 mph - N/A   Overcast
4:31 AM 41.0 °F 37.1 °F 37.4 °F 87% 29.82 in 10.0 mi North 5.8 mph - N/A   Overcast
4:51 AM 41.0 °F 37.1 °F 37.4 °F 87% 29.82 in 10.0 mi North 5.8 mph - N/A   Overcast
5:11 AM 41.0 °F 37.1 °F 37.4 °F 87% 29.81 in 10.0 mi North 5.8 mph - N/A   Overcast
5:31 AM 41.0 °F 36.4 °F 37.4 °F 87% 29.81 in 10.0 mi North 6.9 mph - N/A   Overcast
5:51 AM 41.0 °F - 37.4 °F 87% 29.81 in 10.0 mi Calm Calm - N/A   Overcast
6:11 AM 41.0 °F 38.0 °F 37.4 °F 87% 29.80 in 10.0 mi North 4.6 mph - N/A   Overcast
6:31 AM 39.2 °F 33.6 °F 35.6 °F 87% 29.81 in 10.0 mi NNW 8.1 mph - N/A   Scattered Clouds
6:51 AM 37.4 °F 31.4 °F 35.6 °F 93% 29.82 in 10.0 mi NNW 8.1 mph - N/A   Scattered Clouds
7:11 AM 39.2 °F 35.0 °F 37.4 °F 93% 29.82 in 10.0 mi North 5.8 mph - N/A   Overcast
7:31 AM 41.0 °F 37.1 °F 37.4 °F 87% 29.83 in 10.0 mi NNW 5.8 mph - N/A   Overcast
7:51 AM 41.0 °F 36.4 °F 37.4 °F 87% 29.83 in 10.0 mi North 6.9 mph - N/A   Overcast
8:11 AM 41.0 °F 37.1 °F 37.4 °F 87% 29.84 in 10.0 mi North 5.8 mph - N/A   Overcast
8:31 AM 41.0 °F 34.3 °F 37.4 °F 87% 29.85 in 10.0 mi NNW 11.5 mph 16.1 mph N/A   Overcast
8:51 AM 41.0 °F 33.9 °F 37.4 °F 87% 29.85 in 10.0 mi NNW 12.7 mph 18.4 mph N/A   Overcast
9:11 AM 41.0 °F 33.9 °F 37.4 °F 87% 29.86 in 10.0 mi NNW 12.7 mph - N/A   Overcast
9:51 AM 41.0 °F 33.9 °F 37.4 °F 87% 29.84 in 10.0 mi North 12.7 mph 19.6 mph N/A   Overcast
10:11 AM 41.0 °F 33.9 °F 37.4 °F 87% 29.83 in 10.0 mi North 12.7 mph 20.7 mph N/A   Overcast
10:31 AM 42.8 °F 35.1 °F 37.4 °F 81% 29.80 in 10.0 mi North 16.1 mph 23.0 mph N/A   Overcast
10:51 AM 42.8 °F 35.1 °F 37.4 °F 81% 29.83 in 10.0 mi North 16.1 mph 23.0 mph N/A   Overcast
11:11 AM 42.8 °F 36.2 °F 37.4 °F 81% 29.85 in 10.0 mi North 12.7 mph 17.3 mph N/A   Overcast
11:31 AM 42.8 °F 38.0 °F 35.6 °F 76% 29.87 in 10.0 mi North 8.1 mph 18.4 mph N/A   Overcast
11:51 AM 41.0 °F 33.9 °F 35.6 °F 81% 29.88 in 10.0 mi North 12.7 mph 17.3 mph N/A   Overcast
12:11 PM 41.0 °F 34.3 °F 35.6 °F 81% 29.88 in 10.0 mi North 11.5 mph - N/A   Overcast
12:31 PM 42.8 °F 37.0 °F 35.6 °F 76% 29.89 in 10.0 mi North 10.4 mph - N/A   Overcast
12:51 PM 41.0 °F 33.9 °F 35.6 °F 81% 29.89 in 10.0 mi North 12.7 mph - N/A   Overcast
1:11 PM 41.0 °F 33.1 °F 33.8 °F 76% 29.88 in 10.0 mi North 15.0 mph 18.4 mph N/A   Overcast
1:31 PM 41.0 °F 34.3 °F 33.8 °F 76% 29.89 in 10.0 mi North 11.5 mph 21.9 mph N/A   Overcast
1:51 PM 37.4 °F 30.3 °F 33.8 °F 87% 29.91 in 10.0 mi North 10.4 mph - N/A   Overcast
2:10 PM 39.2 °F 32.5 °F 32.0 °F 75% 29.91 in 10.0 mi North 10.4 mph 16.1 mph N/A   Overcast
2:31 PM 39.2 °F 30.8 °F 32.0 °F 75% 29.91 in 10.0 mi North 15.0 mph - N/A   Overcast
2:51 PM 37.4 °F 28.9 °F 32.0 °F 81% 29.90 in 10.0 mi North 13.8 mph - N/A   Overcast
3:11 PM 39.2 °F 30.5 °F 32.0 °F 75% 29.89 in 10.0 mi North 16.1 mph 21.9 mph N/A   Overcast
3:31 PM 39.2 °F 32.0 °F 32.0 °F 75% 29.88 in 10.0 mi North 11.5 mph 17.3 mph N/A   Overcast
3:51 PM 39.2 °F 31.2 °F 32.0 °F 75% 29.87 in 10.0 mi North 13.8 mph 17.3 mph N/A   Overcast
4:11 PM 39.2 °F 31.2 °F 32.0 °F 75% 29.86 in 10.0 mi North 13.8 mph 19.6 mph N/A   Overcast
4:31 PM 39.2 °F 32.5 °F 32.0 °F 75% 29.85 in 10.0 mi North 10.4 mph 17.3 mph N/A   Overcast
4:51 PM 41.0 °F 37.1 °F 32.0 °F 70% 29.85 in 10.0 mi North 5.8 mph - N/A   Overcast
5:11 PM 39.2 °F 33.0 °F 32.0 °F 75% 29.85 in 10.0 mi North 9.2 mph - N/A   Overcast
5:31 PM 41.0 °F 35.2 °F 32.0 °F 70% 29.86 in 10.0 mi North 9.2 mph - N/A   Overcast
5:51 PM 39.2 °F 30.8 °F 30.2 °F 70% 29.86 in 10.0 mi North 15.0 mph 19.6 mph N/A   Overcast
6:11 PM 39.2 °F 32.5 °F 30.2 °F 70% 29.87 in 10.0 mi North 10.4 mph 19.6 mph N/A   Overcast
6:31 PM 39.2 °F 31.2 °F 30.2 °F 70% 29.86 in 10.0 mi North 13.8 mph 19.6 mph N/A   Overcast
7:11 PM 37.4 °F 28.9 °F 30.2 °F 75% 29.86 in 10.0 mi North 13.8 mph 25.3 mph N/A   Overcast
7:31 PM 37.4 °F 28.9 °F 28.4 °F 70% 29.87 in 10.0 mi North 13.8 mph 20.7 mph N/A   Overcast
7:51 PM 37.4 °F 28.9 °F 28.4 °F 70% 29.87 in 10.0 mi North 13.8 mph 23.0 mph N/A   Overcast
8:11 PM 35.6 °F 26.2 °F 28.4 °F 75% 29.86 in 10.0 mi North 15.0 mph 23.0 mph N/A   Overcast
8:31 PM 35.6 °F 27.1 °F 28.4 °F 75% 29.86 in 10.0 mi North 12.7 mph 21.9 mph N/A   Overcast
8:51 PM 35.6 °F 26.6 °F 28.4 °F 75% 29.86 in 10.0 mi North 13.8 mph 24.2 mph N/A   Overcast
9:11 PM 35.6 °F 25.5 °F 28.4 °F 75% 29.86 in 10.0 mi North 17.3 mph 24.2 mph N/A   Overcast
9:31 PM 35.6 °F 27.5 °F 28.4 °F 75% 29.86 in 10.0 mi North 11.5 mph 21.9 mph N/A   Overcast
9:51 PM 35.6 °F 26.2 °F 28.4 °F 75% 29.87 in 10.0 mi North 15.0 mph 26.5 mph N/A   Overcast
10:11 PM 35.6 °F 25.5 °F 26.6 °F 70% 29.88 in 10.0 mi North 17.3 mph 24.2 mph N/A   Overcast
10:31 PM 35.6 °F 24.8 °F 26.6 °F 70% 29.88 in 10.0 mi North 19.6 mph 27.6 mph N/A   Overcast
10:51 PM 33.8 °F 24.8 °F 26.6 °F 75% 29.90 in 10.0 mi North 12.7 mph 25.3 mph N/A   Overcast
11:11 PM 33.8 °F 25.3 °F 26.6 °F 75% 29.90 in 10.0 mi North 11.5 mph 23.0 mph N/A   Overcast
11:31 PM 33.8 °F 23.2 °F 24.8 °F 70% 29.91 in 10.0 mi North 17.3 mph 26.5 mph N/A   Overcast
11:51 PM 33.8 °F 22.8 °F 24.8 °F 70% 29.91 in 10.0 mi North 18.4 mph 31.1 mph N/A   Overcast